Powrót do katalogu

DELTA 1 DEB

AktywnyPO
NORAD 12427·DEBRIS·🇺🇸 United States

Wystrzelony Mar 5, 1978 z Vandenberg Space Force Base

Loading…

Następne Przeloty (najbliższe 24 godziny)

TLE

ŚwieżeSource: Space-Track

Epoka: Sep 14, 2026, 11:53 UTC

1 12427U 78026ET  26257.49524063  .00001561  00000-0  43990-3 0  9995
2 12427  99.1589  90.4545 0100372  48.3632 334.2577 14.44486843384793

Śledź DELTA 1 DEB w czasie rzeczywistym z AllMySat

Download on the App Store